Location: Barrio Las Umbrías
(40.4173°N, 4.8685°W)
Time: 12:54:30
(UTC+00:00)

Cosmos 1408 Rocket - Pass Details

Date: 17 August 2022
Orbit: 600 x 630 km, 82.6° (Epoch: 27 September)

Event Time Altitude Azimuth Distance (km) Brightness Sun altitude
Exits shadow 21:03:06 41° 152° (SSE) 903 3.9 -19.1°
Maximum altitude 21:04:22 60° 95° (E) 718 3.6 -19.3°
Drops below altitude 10° 21:08:45 10° 15° (NNE) 2,009 6.5 -20.0°
Sets 21:11:02 0° 12° (NNE) 2,924 7.4 -20.3°
